When you browse on this site, cookies collect data to enhance your experience and personalize the content and advertising you see.
Visit our Privacy Policy to learn more. By continuing to use the site, you agree to this use of cookies and data.
  • In Spain
  • List of Countries
  • For 7 days
  • Water Temperature
  • Satellite Maps
  • Weather Map
  • Weather Widgets
  • user-avatar
    Login

    Hourly Weather Rehovot

    Today, 21 July, Sunday

    Time Temperature Precipitation Wind Pressure Humidity
    00:00 +24°C° 0 mm 1 mps 753 mmHg 85%
    01:00 +24°C° 0 mm 1 mps 753 mmHg 85%
    02:00 +24°C° 0 mm 1 mps 753 mmHg 85%
    03:00 +24°C° 0 mm 1 mps 753 mmHg 85%
    04:00 +24°C° 0 mm 2 mps 753 mmHg 85%
    05:00 +24°C° 0 mm 2 mps 753 mmHg 85%
    06:00 +25°C° 0 mm 2 mps 753 mmHg 78%
    07:00 +27°C° 0 mm 2 mps 753 mmHg 71%
    08:00 +28°C° 0 mm 2 mps 753 mmHg 64%
    09:00 +30°C° 0 mm 3 mps 753 mmHg 58%
    10:00 +32°C° 0 mm 4 mps 753 mmHg 53%
    11:00 +33°C° 0 mm 4 mps 753 mmHg 48%
    12:00 +33°C° 0 mm 5 mps 752 mmHg 49%
    13:00 +33°C° 0 mm 5 mps 752 mmHg 50%
    14:00 +33°C° 0 mm 5 mps 751 mmHg 50%
    15:00 +32°C° 0 mm 5 mps 751 mmHg 54%
    16:00 +32°C° 0 mm 5 mps 751 mmHg 57%
    17:00 +30°C° 0 mm 5 mps 751 mmHg 60%
    18:00 +29°C° 0 mm 4 mps 751 mmHg 68%
    19:00 +27°C° 0 mm 3 mps 751 mmHg 75%
    20:00 +26°C° 0 mm 2 mps 752 mmHg 82%
    21:00 +25°C° 0 mm 1 mps 752 mmHg 83%
    22:00 +25°C° 0 mm 1 mps 752 mmHg 84%
    23:00 +22°C° 0 mm 0 mps 751 mmHg 84%

    Tomorrow, 22 July, Monday

    Time Temperature Precipitation Wind Pressure Humidity
    00:00 +24°C° 0 mm 1 mps 751 mmHg 85%
    01:00 +24°C° 0 mm 1 mps 751 mmHg 85%
    02:00 +24°C° 0 mm 1 mps 751 mmHg 86%
    03:00 +24°C° 0 mm 1 mps 751 mmHg 86%
    04:00 +24°C° 0 mm 1 mps 751 mmHg 87%
    05:00 +24°C° 0 mm 2 mps 751 mmHg 87%
    06:00 +25°C° 0 mm 2 mps 751 mmHg 79%
    07:00 +27°C° 0 mm 2 mps 751 mmHg 72%
    08:00 +29°C° 0 mm 2 mps 752 mmHg 64%
    09:00 +31°C° 0 mm 3 mps 751 mmHg 58%
    10:00 +33°C° 0 mm 3 mps 751 mmHg 52%
    11:00 +35°C° 0 mm 4 mps 751 mmHg 46%
    12:00 +35°C° 0 mm 5 mps 751 mmHg 46%
    13:00 +35°C° 0 mm 5 mps 750 mmHg 47%
    14:00 +35°C° 0 mm 5 mps 750 mmHg 48%
    15:00 +34°C° 0 mm 5 mps 749 mmHg 51%
    16:00 +33°C° 0 mm 5 mps 749 mmHg 54%
    17:00 +33°C° 0 mm 5 mps 749 mmHg 57%
    18:00 +30°C° 0 mm 4 mps 749 mmHg 66%
    19:00 +28°C° 0 mm 3 mps 749 mmHg 75%
    20:00 +26°C° 0 mm 2 mps 750 mmHg 84%
    21:00 +26°C° 0 mm 2 mps 750 mmHg 85%
    22:00 +25°C° 0 mm 1 mps 749 mmHg 85%
    23:00 +23°C° 0 mm 0 mps 749 mmHg 86%

    Day after tomorrow, 23 July, Tuesday

    Time Temperature Precipitation Wind Pressure Humidity
    00:00 +25°C° 0 mm 1 mps 749 mmHg 86%
    01:00 +24°C° 0 mm 1 mps 749 mmHg 87%
    02:00 +24°C° 0 mm 1 mps 749 mmHg 87%
    03:00 +24°C° 0 mm 1 mps 749 mmHg 87%
    04:00 +24°C° 0 mm 1 mps 749 mmHg 87%
    05:00 +24°C° 0 mm 1 mps 749 mmHg 88%
    06:00 +26°C° 0 mm 1 mps 749 mmHg 79%
    07:00 +28°C° 0 mm 1 mps 749 mmHg 71%
    08:00 +30°C° 0 mm 1 mps 750 mmHg 63%
    09:00 +31°C° 0 mm 2 mps 749 mmHg 57%
    10:00 +34°C° 0 mm 3 mps 749 mmHg 50%
    11:00 +36°C° 0 mm 4 mps 749 mmHg 44%
    12:00 +36°C° 0 mm 5 mps 749 mmHg 44%
    13:00 +36°C° 0 mm 5 mps 748 mmHg 44%
    14:00 +36°C° 0 mm 6 mps 748 mmHg 43%
    15:00 +35°C° 0 mm 6 mps 748 mmHg 46%
    16:00 +34°C° 0 mm 6 mps 748 mmHg 48%
    17:00 +33°C° 0 mm 7 mps 748 mmHg 51%
    18:00 +30°C° 0 mm 5 mps 748 mmHg 61%
    19:00 +28°C° 0 mm 4 mps 749 mmHg 71%
    20:00 +27°C° 0 mm 2 mps 749 mmHg 82%
    21:00 +26°C° 0 mm 2 mps 749 mmHg 83%
    22:00 +26°C° 0 mm 1 mps 749 mmHg 84%
    23:00 +25°C° 0 mm 1 mps 749 mmHg 85%

    24 July, Wednesday

    Time Temperature Precipitation Wind Pressure Humidity
    00:00 +25°C° 0 mm 1 mps 749 mmHg 84%
    01:00 +25°C° 0 mm 1 mps 749 mmHg 84%
    02:00 +25°C° 0 mm 1 mps 749 mmHg 84%
    03:00 +24°C° 0 mm 1 mps 749 mmHg 85%
    04:00 +24°C° 0 mm 1 mps 749 mmHg 85%
    05:00 +24°C° 0 mm 2 mps 749 mmHg 86%
    06:00 +26°C° 0 mm 2 mps 750 mmHg 77%
    07:00 +28°C° 0 mm 2 mps 750 mmHg 69%
    08:00 +30°C° 0 mm 3 mps 750 mmHg 60%
    09:00 +31°C° 0 mm 3 mps 750 mmHg 55%
    10:00 +34°C° 0 mm 4 mps 750 mmHg 49%
    11:00 +35°C° 0 mm 5 mps 750 mmHg 43%
    12:00 +35°C° 0 mm 5 mps 750 mmHg 42%
    13:00 +35°C° 0 mm 5 mps 749 mmHg 41%
    14:00 +35°C° 0 mm 5 mps 749 mmHg 41%
    15:00 +35°C° 0 mm 5 mps 749 mmHg 44%
    16:00 +34°C° 0 mm 5 mps 749 mmHg 47%
    17:00 +33°C° 0 mm 4 mps 749 mmHg 49%
    18:00 +30°C° 0 mm 4 mps 749 mmHg 59%
    19:00 +28°C° 0 mm 3 mps 750 mmHg 68%
    20:00 +26°C° 0 mm 2 mps 750 mmHg 78%
    21:00 +26°C° 0 mm 2 mps 750 mmHg 76%
    22:00 +25°C° 0 mm 2 mps 750 mmHg 74%
    23:00 +25°C° 0 mm 1 mps 750 mmHg 72%

    25 July, Thursday

    Time Temperature Precipitation Wind Pressure Humidity
    00:00 +24°C° 0 mm 1 mps 750 mmHg 75%
    01:00 +24°C° 0 mm 1 mps 750 mmHg 79%
    02:00 +21°C° 0 mm 0 mps 750 mmHg 82%
    03:00 +23°C° 0 mm 1 mps 750 mmHg 82%
    04:00 +23°C° 0 mm 1 mps 750 mmHg 83%
    05:00 +23°C° 0 mm 2 mps 750 mmHg 83%
    06:00 +25°C° 0 mm 2 mps 750 mmHg 74%
    07:00 +28°C° 0 mm 2 mps 751 mmHg 65%
    08:00 +30°C° 0 mm 2 mps 751 mmHg 56%
    09:00 +31°C° 0 mm 2 mps 751 mmHg 49%
    10:00 +34°C° 0 mm 3 mps 751 mmHg 43%
    11:00 +35°C° 0 mm 3 mps 751 mmHg 37%
    12:00 +35°C° 0 mm 4 mps 750 mmHg 37%
    13:00 +35°C° 0 mm 5 mps 750 mmHg 38%
    14:00 +35°C° 0 mm 5 mps 749 mmHg 38%
    15:00 +35°C° 0 mm 5 mps 749 mmHg 41%
    16:00 +34°C° 0 mm 5 mps 749 mmHg 44%
    17:00 +33°C° 0 mm 5 mps 749 mmHg 47%
    18:00 +30°C° 0 mm 4 mps 749 mmHg 56%
    19:00 +28°C° 0 mm 4 mps 750 mmHg 65%
    20:00 +26°C° 0 mm 4 mps 750 mmHg 74%
    21:00 +26°C° 0 mm 3 mps 750 mmHg 73%
    22:00 +25°C° 0 mm 3 mps 750 mmHg 73%
    23:00 +25°C° 0 mm 2 mps 750 mmHg 73%

    26 July, Friday

    Time Temperature Precipitation Wind Pressure Humidity
    00:00 +24°C° 0 mm 2 mps 750 mmHg 74%
    01:00 +24°C° 0 mm 1 mps 750 mmHg 75%
    02:00 +21°C° 0 mm 0 mps 750 mmHg 76%
    03:00 +21°C° 0 mm 0 mps 750 mmHg 78%
    04:00 +23°C° 0 mm 1 mps 750 mmHg 80%
    05:00 +22°C° 0 mm 1 mps 750 mmHg 81%
    06:00 +25°C° 0 mm 1 mps 750 mmHg 73%
    07:00 +27°C° 0 mm 1 mps 750 mmHg 64%
    08:00 +29°C° 0 mm 1 mps 750 mmHg 56%
    09:00 +31°C° 0 mm 2 mps 750 mmHg 51%
    10:00 +33°C° 0 mm 3 mps 750 mmHg 46%
    11:00 +35°C° 0 mm 4 mps 750 mmHg 41%
    12:00 +35°C° 0 mm 4 mps 749 mmHg 42%
    13:00 +35°C° 0 mm 5 mps 749 mmHg 44%
    14:00 +35°C° 0 mm 6 mps 749 mmHg 45%
    15:00 +34°C° 0 mm 6 mps 748 mmHg 50%
    16:00 +33°C° 0 mm 5 mps 748 mmHg 55%
    17:00 +32°C° 0 mm 5 mps 748 mmHg 60%
    18:00 +30°C° 0 mm 4 mps 748 mmHg 69%
    19:00 +28°C° 0 mm 3 mps 748 mmHg 77%
    20:00 +27°C° 0 mm 2 mps 749 mmHg 86%
    21:00 +26°C° 0 mm 2 mps 749 mmHg 86%
    22:00 +26°C° 0 mm 1 mps 749 mmHg 86%
    23:00 +25°C° 0 mm 1 mps 749 mmHg 86%
    Show more